Flag for Canada Weather past 2 weeks in Yellowknife, Northwest Territories, Canada

Now
41 °F

Mostly cloudy.


Feels Like: 33 °F
Forecast: 31 / 37 °F
Wind: 14 mph from Northwest

Location: Yellowknife

Current Time: Sep 30, 2014 at 6:24:06 PM

Latest Report: Sep 30, 2014 at 5:00 PM


Visibility: 15 mi

Pressure: 29.70 "Hg

Humidity: 66%

Dew point: 30 °F

Location of YellowknifeLocation

Historic Weather in Yellowknife — Graph

°F

Yellowknife temperature yesterday

Maximum temperature yesterday: 54 °F (at 2:00 PM)
Minimum temperature yesterday: 41 °F (at 12:00 AM)
Average temperature yesterday: 47 °F

Past Weeks' High & Low Weather Summary

 TemperatureHumidityPressure
High68 °F (Sep 22, 5:00 PM)100% (Sep 20, 3:00 AM)30.32 "Hg (Sep 20, 3:00 AM)
Low30 °F (Sep 16, 6:00 AM)34% (Sep 16, 6:00 PM)29.35 "Hg (Sep 22, 3:00 PM)
Average45 °F76%29.81 "Hg
* Reported Sep 15 5:00 PM — Sep 30 5:00 PM, Yellowknife, Weather by CustomWeather, © 2014

Note: Actual official high and low records may vary slightly from our data, if they occured in-between our weather recording intervals... More about our weather records

Advertising

Yellowknife weather history for previous 24 hours

 ConditionsComfort  
Time TempWeatherWind HumidityBarometerVisibility
5:00 PM
Sep 30
41 °FMostly cloudy.14 mph66%29.70 "Hg15 mi
4:00 PM43 °FMostly cloudy.16 mph61%29.69 "Hg15 mi
3:00 PM45 °FBroken clouds.14 mph61%29.67 "Hg15 mi
2:00 PM43 °FPartly sunny.12 mph66%29.66 "Hg15 mi
1:00 PM43 °FBroken clouds.15 mph66%29.64 "Hg15 mi
12:00 PM43 °FScattered clouds.15 mph71%29.63 "Hg15 mi
11:00 AM39 °FBroken clouds.16 mph75%29.62 "Hg15 mi
9:00 AM39 °FPartly sunny.16 mph81%29.60 "Hg15 mi
8:00 AM39 °FMostly cloudy.10 mph87%29.57 "Hg15 mi
7:00 AM41 °FPassing clouds.13 mph81%29.56 "Hg15 mi
6:00 AM43 °FOvercast.16 mph87%29.54 "Hg15 mi
5:00 AM46 °FMostly cloudy.9 mph87%29.52 "Hg15 mi
4:00 AM46 °FMostly cloudy.9 mph87%29.51 "Hg15 mi
3:00 AM46 °FMostly cloudy.10 mph87%29.49 "Hg15 mi
2:00 AM46 °FMostly cloudy.10 mph93%29.47 "Hg15 mi
1:00 AM46 °FPartly cloudy.3 mph93%29.46 "Hg15 mi
12:00 AM45 °FPassing clouds.3 mph93%29.44 "Hg15 mi
11:00 PM
Sep 29
48 °FPassing clouds.3 mph87%29.45 "Hg15 mi
10:00 PM50 °FOvercast.8 mph82%29.45 "Hg15 mi
9:00 PM50 °FOvercast.12 mph82%29.45 "Hg15 mi
8:00 PM50 °FMostly cloudy.13 mph82%29.45 "Hg13 mi
7:00 PM52 °FMostly cloudy.14 mph77%29.46 "Hg15 mi
6:00 PM54 °FCloudy.14 mph72%29.46 "Hg15 mi
Weather by CustomWeather, © 2014

See weather overviewHow to use our weather pages